This is the latest recevied weather packets stored in our database for station/object N2XP-2. If no packets are shown the sender has not sent any weather packets the latest 10 day(s).
| Time | Temp. | Humidity | Pressure | Rain* | Wind** | Luminosity | Snow |
|---|---|---|---|---|---|---|---|
| 1777966862 | 15° C | 85% | 1010.6 hPa | 0.25 mm | 0.89 m/s, 243° | - | - |
| 1777966563 | 15° C | 85% | 1010.6 hPa | 0.25 mm | 0.89 m/s, 259° | - | - |
| 1777966264 | 15° C | 85% | 1010.6 hPa | 0.25 mm | 0.89 m/s, 298° | - | - |
| 1777965961 | 15° C | 85% | 1010.6 hPa | 0.25 mm | 0.89 m/s, 309° | - | - |
| 1777965662 | 15° C | 85% | 1010.5 hPa | 0.25 mm | 0.89 m/s, 256° | - | - |
| 1777965363 | 15° C | 85% | 1010.5 hPa | 0.25 mm | 1.34 m/s, 222° | - | - |
| 1777965228 | 15° C | 84% | 1010.5 hPa | 0.25 mm | 0.89 m/s, 297° | - | - |
| 1777965060 | 15° C | 85% | 1010.5 hPa | 0.25 mm | 0.45 m/s, 328° | - | - |
| 1777964964 | 15° C | 84% | 1010.5 hPa | 0.25 mm | 0.89 m/s, 218° | - | - |
| 1777964761 | 15° C | 84% | 1010.5 hPa | 0.25 mm | 0.89 m/s, 218° | - | - |
| 1777964462 | 15° C | 84% | 1010.5 hPa | 0.25 mm | 1.34 m/s, 240° | - | - |
| 1777964160 | 15° C | 84% | 1010.5 hPa | 0.25 mm | 0.89 m/s, 235° | - | - |
| 1777963994 | 15° C | 84% | 1010.5 hPa | 0.25 mm | 0.89 m/s, 297° | - | - |
| 1777963861 | 15° C | 84% | 1010.5 hPa | 0.25 mm | 0.89 m/s, 297° | - | - |
| 1777963562 | 15.56° C | 83% | 1010.6 hPa | 0 mm | 0.89 m/s, 280° | - | - |
| 1777963302 | 15.56° C | 82% | 1010.7 hPa | 0 mm | 1.34 m/s, 210° | - | - |
| 1777963294 | 15.56° C | 81% | 1010.7 hPa | 0 mm | 1.79 m/s, 329° | - | - |
| 1777963260 | 15.56° C | 83% | 1010.5 hPa | 0 mm | 0.45 m/s, 239° | - | - |
| 1777962960 | 15.56° C | 83% | 1010.5 hPa | 0 mm | 0.45 m/s, 246° | - | - |
| 1777962661 | 15.56° C | 82% | 1010.5 hPa | 0 mm | 0.45 m/s, 215° | - | - |
| 1777962359 | 15.56° C | 82% | 1010.6 hPa | 0 mm | 1.34 m/s, 229° | - | - |
| 1777962060 | 15.56° C | 82% | 1010.6 hPa | 0 mm | 0.89 m/s, 188° | - | - |
| 1777961761 | 15.56° C | 82% | 1010.7 hPa | 0 mm | 1.34 m/s, 210° | - | - |
| 1777961458 | 15.56° C | 81% | 1010.7 hPa | 0 mm | 1.79 m/s, 329° | - | - |
| 1777961382 | 15.56° C | 80% | 1010.9 hPa | 0.25 mm | 0.45 m/s, 225° | - | - |
* Rain latest hour (hover to see other rain measurements)
** Current wind speed in m/s (hover to see current wind gust speed)